When you browse on this site, cookies collect data to enhance your experience and personalize the content and advertising you see.
Visit our Privacy Policy to learn more. By continuing to use the site, you agree to this use of cookies and data.
  • In Hungary
  • List of Countries
  • For 7 days
  • Water Temperature
  • Satellite Maps
  • Weather Map
  • News
  • Weather Widgets
  • user-avatar
    Login

    Hourly Weather Chrapkow

    Today, 25 May, Saturday

    Time Temperature Precipitation Wind Pressure Humidity
    00:00 +12°C° 0 mm 2 mps 737 mmHg 92%
    01:00 +10°C° 0 mm 2 mps 737 mmHg 92%
    02:00 +10°C° 0 mm 2 mps 737 mmHg 93%
    03:00 +10°C° 0 mm 2 mps 737 mmHg 93%
    04:00 +10°C° 0 mm 1 mps 737 mmHg 93%
    05:00 +12°C° 0 mm 2 mps 737 mmHg 88%
    06:00 +14°C° 0 mm 2 mps 737 mmHg 83%
    07:00 +14°C° 0 mm 3 mps 737 mmHg 78%
    08:00 +17°C° 0 mm 3 mps 737 mmHg 71%
    09:00 +18°C° 0 mm 3 mps 737 mmHg 63%
    10:00 +20°C° 0 mm 3 mps 737 mmHg 56%
    11:00 +20°C° 0 mm 3 mps 737 mmHg 55%
    12:00 +21°C° 0 mm 3 mps 737 mmHg 54%
    13:00 +22°C° 0 mm 3 mps 737 mmHg 53%
    14:00 +22°C° 0.1 mm 4 mps 736 mmHg 57%
    15:00 +21°C° 0.1 mm 4 mps 736 mmHg 60%
    16:00 +21°C° 0.1 mm 4 mps 736 mmHg 64%
    17:00 +20°C° 0.2 mm 3 mps 736 mmHg 70%
    18:00 +18°C° 0.2 mm 3 mps 736 mmHg 76%
    19:00 +17°C° 0.2 mm 2 mps 736 mmHg 82%
    20:00 +16°C° 0 mm 2 mps 737 mmHg 84%
    21:00 +15°C° 0 mm 2 mps 737 mmHg 87%
    22:00 +14°C° 0 mm 2 mps 737 mmHg 89%
    23:00 +13°C° 0 mm 1 mps 737 mmHg 89%

    Tomorrow, 26 May, Sunday

    Time Temperature Precipitation Wind Pressure Humidity
    00:00 +13°C° 0 mm 1 mps 737 mmHg 89%
    01:00 +13°C° 0 mm 1 mps 737 mmHg 90%
    02:00 +12°C° 0 mm 1 mps 737 mmHg 90%
    03:00 +12°C° 0 mm 1 mps 737 mmHg 91%
    04:00 +12°C° 0 mm 1 mps 737 mmHg 92%
    05:00 +14°C° 0 mm 1 mps 738 mmHg 88%
    06:00 +15°C° 0 mm 2 mps 738 mmHg 85%
    07:00 +17°C° 0 mm 2 mps 738 mmHg 81%
    08:00 +18°C° 0.3 mm 2 mps 738 mmHg 77%
    09:00 +19°C° 0.3 mm 3 mps 738 mmHg 73%
    10:00 +20°C° 0.3 mm 3 mps 738 mmHg 69%
    11:00 +21°C° 0.3 mm 3 mps 737 mmHg 67%
    12:00 +21°C° 0.3 mm 3 mps 737 mmHg 65%
    13:00 +22°C° 0.3 mm 3 mps 737 mmHg 63%
    14:00 +22°C° 0.2 mm 3 mps 737 mmHg 64%
    15:00 +22°C° 0.2 mm 3 mps 736 mmHg 64%
    16:00 +22°C° 0.2 mm 3 mps 736 mmHg 65%
    17:00 +20°C° 0.2 mm 2 mps 736 mmHg 70%
    18:00 +19°C° 0.2 mm 2 mps 736 mmHg 75%
    19:00 +19°C° 0.2 mm 1 mps 736 mmHg 80%
    20:00 +18°C° 0 mm 1 mps 737 mmHg 82%
    21:00 +16°C° 0 mm 1 mps 737 mmHg 84%
    22:00 +14°C° 0 mm 0 mps 737 mmHg 86%
    23:00 +14°C° 0 mm 1 mps 737 mmHg 87%

    Day after tomorrow, 27 May, Monday

    Time Temperature Precipitation Wind Pressure Humidity
    00:00 +14°C° 0 mm 1 mps 737 mmHg 89%
    01:00 +14°C° 0 mm 2 mps 737 mmHg 90%
    02:00 +14°C° 0 mm 2 mps 737 mmHg 91%
    03:00 +13°C° 0 mm 2 mps 736 mmHg 92%
    04:00 +13°C° 0 mm 2 mps 736 mmHg 94%
    05:00 +15°C° 0 mm 2 mps 736 mmHg 89%
    06:00 +17°C° 0 mm 2 mps 736 mmHg 85%
    07:00 +18°C° 0 mm 2 mps 737 mmHg 81%
    08:00 +20°C° 0.1 mm 3 mps 737 mmHg 76%
    09:00 +21°C° 0.1 mm 3 mps 736 mmHg 70%
    10:00 +23°C° 0.1 mm 4 mps 736 mmHg 65%
    11:00 +23°C° 0.5 mm 4 mps 736 mmHg 67%
    12:00 +22°C° 0.5 mm 4 mps 736 mmHg 69%
    13:00 +22°C° 0.5 mm 5 mps 736 mmHg 71%
    14:00 +22°C° 0.2 mm 4 mps 736 mmHg 73%
    15:00 +22°C° 0.2 mm 3 mps 736 mmHg 75%
    16:00 +23°C° 0.2 mm 2 mps 735 mmHg 77%
    17:00 +21°C° 0 mm 2 mps 735 mmHg 79%
    18:00 +20°C° 0 mm 2 mps 735 mmHg 81%
    19:00 +19°C° 0 mm 2 mps 735 mmHg 83%
    20:00 +19°C° 0.1 mm 2 mps 735 mmHg 84%
    21:00 +19°C° 0.1 mm 1 mps 735 mmHg 85%
    22:00 +19°C° 0.1 mm 1 mps 735 mmHg 87%
    23:00 +18°C° 0 mm 1 mps 735 mmHg 88%

    28 May, Tuesday

    Time Temperature Precipitation Wind Pressure Humidity
    00:00 +18°C° 0 mm 1 mps 734 mmHg 89%
    01:00 +18°C° 0 mm 1 mps 734 mmHg 90%
    02:00 +18°C° 0.3 mm 1 mps 734 mmHg 92%
    03:00 +18°C° 0.3 mm 1 mps 734 mmHg 94%
    04:00 +17°C° 0.3 mm 2 mps 733 mmHg 96%
    05:00 +17°C° 2.4 mm 2 mps 733 mmHg 96%
    06:00 +17°C° 2.4 mm 2 mps 733 mmHg 96%
    07:00 +17°C° 2.4 mm 2 mps 733 mmHg 97%
    08:00 +19°C° 0.1 mm 2 mps 733 mmHg 89%
    09:00 +20°C° 0.1 mm 3 mps 732 mmHg 82%
    10:00 +22°C° 0.1 mm 3 mps 732 mmHg 74%
    11:00 +24°C° 0.1 mm 3 mps 732 mmHg 70%
    12:00 +25°C° 0.1 mm 2 mps 732 mmHg 67%
    13:00 +25°C° 0.1 mm 2 mps 732 mmHg 64%
    14:00 +25°C° 1.3 mm 2 mps 731 mmHg 70%
    15:00 +24°C° 1.3 mm 2 mps 731 mmHg 77%
    16:00 +23°C° 1.3 mm 1 mps 731 mmHg 84%
    17:00 +22°C° 0.4 mm 1 mps 731 mmHg 84%
    18:00 +21°C° 0.4 mm 1 mps 731 mmHg 84%
    19:00 +18°C° 0.4 mm 0 mps 731 mmHg 83%
    20:00 +18°C° 0.5 mm 0 mps 731 mmHg 86%
    21:00 +19°C° 0.5 mm 1 mps 731 mmHg 88%
    22:00 +18°C° 0.5 mm 1 mps 731 mmHg 90%
    23:00 +16°C° 0.5 mm 1 mps 731 mmHg 91%

    29 May, Wednesday

    Time Temperature Precipitation Wind Pressure Humidity
    00:00 +16°C° 0.5 mm 2 mps 731 mmHg 91%
    01:00 +16°C° 0.5 mm 2 mps 732 mmHg 91%
    02:00 +14°C° 0 mm 3 mps 732 mmHg 93%
    03:00 +14°C° 0 mm 3 mps 732 mmHg 95%
    04:00 +13°C° 0 mm 3 mps 732 mmHg 96%
    05:00 +16°C° 0 mm 3 mps 733 mmHg 94%
    06:00 +17°C° 0 mm 3 mps 733 mmHg 92%
    07:00 +18°C° 0 mm 4 mps 734 mmHg 90%
    08:00 +18°C° 0.3 mm 4 mps 734 mmHg 88%
    09:00 +18°C° 0.3 mm 4 mps 735 mmHg 87%
    10:00 +18°C° 0.3 mm 4 mps 735 mmHg 85%
    11:00 +16°C° 0.2 mm 5 mps 735 mmHg 85%
    12:00 +16°C° 0.2 mm 5 mps 736 mmHg 84%
    13:00 +15°C° 0.2 mm 6 mps 736 mmHg 84%
    14:00 +14°C° 0 mm 6 mps 737 mmHg 84%
    15:00 +13°C° 0 mm 5 mps 737 mmHg 84%
    16:00 +12°C° 0 mm 5 mps 738 mmHg 85%
    17:00 +12°C° 0 mm 4 mps 738 mmHg 84%
    18:00 +12°C° 0 mm 4 mps 739 mmHg 84%
    19:00 +12°C° 0 mm 3 mps 739 mmHg 83%
    20:00 +12°C° 0 mm 3 mps 740 mmHg 82%
    21:00 +12°C° 0 mm 2 mps 740 mmHg 81%
    22:00 +12°C° 0 mm 2 mps 741 mmHg 81%
    23:00 +12°C° 0 mm 2 mps 741 mmHg 81%

    30 May, Thursday

    Time Temperature Precipitation Wind Pressure Humidity
    00:00 +12°C° 0 mm 2 mps 741 mmHg 82%
    01:00 +10°C° 0 mm 2 mps 742 mmHg 82%
    02:00 +10°C° 0.1 mm 2 mps 742 mmHg 84%
    03:00 +10°C° 0.1 mm 2 mps 742 mmHg 86%
    04:00 +10°C° 0.1 mm 1 mps 743 mmHg 88%
    05:00 +10°C° 0.7 mm 1 mps 743 mmHg 88%
    06:00 +9°C° 0.7 mm 2 mps 743 mmHg 88%
    07:00 +9°C° 0.7 mm 2 mps 743 mmHg 88%
    08:00 +10°C° 0 mm 2 mps 743 mmHg 84%
    09:00 +12°C° 0 mm 2 mps 743 mmHg 79%
    10:00 +13°C° 0 mm 2 mps 744 mmHg 75%
    11:00 +14°C° 0 mm 2 mps 743 mmHg 70%
    12:00 +16°C° 0 mm 2 mps 743 mmHg 66%
    13:00 +17°C° 0 mm 2 mps 743 mmHg 61%
    14:00 +18°C° 0 mm 1 mps 742 mmHg 61%
    15:00 +18°C° 0 mm 1 mps 742 mmHg 61%
    16:00 +18°C° 0 mm 1 mps 742 mmHg 61%
    17:00 +16°C° 0 mm 1 mps 741 mmHg 65%
    18:00 +16°C° 0 mm 1 mps 741 mmHg 70%
    19:00 +15°C° 0 mm 1 mps 741 mmHg 75%
    20:00 +14°C° 0 mm 1 mps 741 mmHg 76%
    21:00 +12°C° 0 mm 1 mps 741 mmHg 78%
    22:00 +11°C° 0 mm 1 mps 741 mmHg 79%
    23:00 +11°C° 0 mm 1 mps 740 mmHg 78%
    Show more